Orangeburg, SC

11:29 PM EST on December 04, 2016 (GMT -0500)
Orangeburg Municipal

Weather History for KOGB - June, 2013

Change the Weather History Date:

Sunday, June 23, 2013

  Actual Average Record
Temperature  
Mean Temperature 80 °F 80 °F  
Max Temperature 88 °F 90 °F 101 °F (1981)
Min Temperature 71 °F 69 °F 57 °F (1972)
Degree Days  
Heating Degree Days 0 0  
Month to date heating degree days 0 0  
Since 1 June heating degree days 0 0  
Since 1 July heating degree days 2181 2332  
Cooling Degree Days 15 15  
Month to date cooling degree days 311 292  
Year to date cooling degree days 573 595  
Since 1 June cooling degree days 311 292  
Growing Degree Days 29 (Base 50)    
Moisture  
Dew Point 71 °F    
Average Humidity 81    
Maximum Humidity 100    
Minimum Humidity 53    
Precipitation  
Precipitation T in 0.17 in 1.50 in (1970)
Month to date precipitation 6.14 3.94  
Year to date precipitation 23.52 21.56  
Sea Level Pressure  
Sea Level Pressure 30.16 in    
Wind  
Wind Speed 2 mph (SE)    
Max Wind Speed 13 mph    
Max Gust Speed 17 mph    
Visibility 8 miles    
Events      
T = Trace of Precipitation, MM = Missing Value Source: NWS Daily Summary

Daily Weather History Graph

Daily Weather History Graph

Search for Another Location

Airport or City:

Trip Planner

Search our weather history database for the weather conditions in past years. The results will help you decide how hot, cold, wet, or windy it might be!

Date:

Astronomy

Jun. 23, 2013 Rise Set
Actual Time 6:14 AM EDT 8:36 PM EDT
Civil Twilight 5:45 AM EDT 9:05 PM EDT
Nautical Twilight 5:10 AM EDT 9:41 PM EDT
Astronomical Twilight 4:31 AM EDT 10:20 PM EDT
Moon 8:52 PM EDT (6/23) 6:27 AM EDT (6/23)
Length of Visible Light 15h 20m
Length of Day
14h 22m
Full, 100% of the Moon is Illuminated
Jun 23
Full
Jun 30
Last Quarter
Jul 8
New
Jul 15
First Quarter
Jul 22
Full

Hourly Weather History & Observations

Time (EDT) Temp. Heat Index Dew Point Humidity Pressure Visibility Wind Dir Wind Speed Gust Speed Precip Events Conditions
12:53 AM 75.0 °F - 71.1 °F 87% 30.16 in 10.0 mi Calm Calm - N/A   Clear
1:53 AM 73.0 °F - 71.1 °F 93% 30.15 in 8.0 mi Calm Calm - N/A   Clear
2:53 AM 73.0 °F - 71.1 °F 93% 30.14 in 8.0 mi ESE 3.5 mph - N/A   Scattered Clouds
3:53 AM 72.0 °F - 71.1 °F 97% 30.14 in 7.0 mi SSE 4.6 mph - N/A   Clear
4:39 AM 73.4 °F - 71.6 °F 94% 30.14 in 7.0 mi Calm Calm - N/A   Partly Cloudy
4:53 AM 73.0 °F - 71.1 °F 93% 30.14 in 6.0 mi Calm Calm - N/A   Partly Cloudy
5:53 AM 72.0 °F - 70.0 °F 93% 30.14 in 5.0 mi Calm Calm - N/A   Clear
6:42 AM 71.6 °F - 69.8 °F 94% 30.16 in 2.0 mi Calm Calm - N/A   Clear
6:45 AM 71.6 °F - 69.8 °F 94% 30.16 in 1.2 mi Calm Calm - N/A   Clear
6:53 AM 72.0 °F - 70.0 °F 93% 30.16 in 1.0 mi Calm Calm - N/A   Partly Cloudy
6:58 AM 71.6 °F - 69.8 °F 94% 30.17 in 3.0 mi Calm Calm - N/A   Partly Cloudy
7:19 AM 73.4 °F - 71.6 °F 94% 30.18 in 5.0 mi Calm Calm - N/A   Mostly Cloudy
7:53 AM 73.9 °F - 72.0 °F 93% 30.18 in 5.0 mi Calm Calm - N/A   Overcast
8:53 AM 77.0 °F - 72.0 °F 84% 30.20 in 10.0 mi Calm Calm - N/A   Scattered Clouds
9:53 AM 80.1 °F 83.8 °F 72.0 °F 76% 30.20 in 10.0 mi Calm Calm - N/A   Partly Cloudy
10:53 AM 81.0 °F 84.4 °F 70.0 °F 69% 30.19 in 10.0 mi SSE 3.5 mph - N/A   Scattered Clouds
11:53 AM 82.0 °F 86.3 °F 71.1 °F 69% 30.20 in 10.0 mi SSE 3.5 mph - N/A   Scattered Clouds
12:38 PM 82.4 °F 86.3 °F 69.8 °F 66% 30.19 in 10.0 mi Calm Calm - 0.00 in   Mostly Cloudy
12:53 PM 86.0 °F 91.5 °F 71.1 °F 61% 30.18 in 10.0 mi North 3.5 mph - 0.00 in   Mostly Cloudy
1:53 PM 87.1 °F 90.6 °F 68.0 °F 53% 30.17 in 10.0 mi Variable 5.8 mph - N/A   Scattered Clouds
2:53 PM 86.0 °F 90.1 °F 69.1 °F 57% 30.15 in 10.0 mi SE 3.5 mph - N/A   Mostly Cloudy
3:53 PM 86.0 °F 90.1 °F 69.1 °F 57% 30.13 in 10.0 mi Calm Calm - N/A   Partly Cloudy
4:53 PM 86.0 °F 90.7 °F 70.0 °F 59% 30.13 in 10.0 mi Calm Calm - N/A   Clear
5:53 PM 84.0 °F 90.2 °F 73.0 °F 69% 30.13 in 10.0 mi ESE 8.1 mph - N/A   Mostly Cloudy
6:53 PM 80.1 °F 84.2 °F 73.0 °F 79% 30.14 in 10.0 mi Calm Calm - 0.00 in   Scattered Clouds
7:53 PM 81.0 °F 85.8 °F 73.0 °F 77% 30.15 in 10.0 mi Calm Calm - N/A   Mostly Cloudy
8:29 PM 78.8 °F - 71.6 °F 78% 30.16 in 10.0 mi South 3.5 mph - N/A   Scattered Clouds
8:53 PM 78.1 °F - 73.0 °F 84% 30.16 in 10.0 mi Calm Calm - N/A   Partly Cloudy
9:53 PM 75.9 °F - 72.0 °F 87% 30.18 in 10.0 mi SE 3.5 mph - N/A   Clear
10:53 PM 75.9 °F - 73.0 °F 91% 30.17 in 10.0 mi Calm Calm - N/A   Clear
11:53 PM 75.0 °F - 73.0 °F 94% 30.18 in 10.0 mi Calm Calm - N/A   Clear